Regional Weather Roundup
Issued by NWS Sioux Falls, SD

Home | Current Version | Previous Version | Text Only | Print | Product List | Glossary Off
Versions: 1 2 3 4 5 6 7 8 9 10 11 12 13 14 15 16 17 18 19 20 21 22 23 24 25 26 27 28 29 30 31 32 33 34 35 36 37 38 39 40 41 42 43 44 45 46 47 48 49 50

000
ASUS43 KFSD 311202
RWRFSD

WEATHER ROUNDUP FOR SE SOUTH DAKOTA/SW MINNESOTA/NW IOWA
NATIONAL WEATHER SERVICE SIOUX FALLS SD
700 AM CDT MON AUG 31 2015

NOTE: "FAIR" INDICATES FEW OR NO CLOUDS BELOW 12,000 FEET WITH NO
SIGNIFICANT WEATHER AND OR OBSTRUCTIONS TO VISIBILITY.


SDZ038>040-050-052>070-311300-
SOUTHEAST SOUTH DAKOTA

CITY           SKY/WX    TMP DP  RH WIND       PRES   REMARKS
BROOKINGS      CLEAR     64  61  88 S12       29.89R
CHAMBERLAIN    CLEAR     69  59  71 S12G20    29.77R
6HR MIN TEMP:  68; 6HR MAX TEMP:  72;

HURON          CLEAR     66  63  90 S13G23    29.76S
6HR MIN TEMP:  66; 6HR MAX TEMP:  67;

MADISON        FAIR      63  63 100 S14       29.88R
MITCHELL       CLEAR     65  64  97 S9        29.81F
6HR MIN TEMP:  65; 6HR MAX TEMP:  68;

SIOUX FALLS    PTCLDY    65  63  93 S12       29.89S
6HR MIN TEMP:  64; 6HR MAX TEMP:  67;

WINNER         FAIR      72  53  51 S22       29.77R
YANKTON        CLEAR     64  63  94 SE9       29.87S
$$

MNZ071-072-080-081-089-090-097-098-311300-
SOUTHWEST MINNESOTA

CITY           SKY/WX    TMP DP  RH WIND       PRES   REMARKS
FAIRMONT       PTCLDY    64  61  88 S10       29.94S
JACKSON        CLEAR     64  64 100 S12       29.95S FOG
LUVERNE        FOG       63  61  94 S3        29.93R VSB 1/4
MARSHALL       CLEAR     66  61  82 SW24G32   29.85S
6HR MIN TEMP:  66; 6HR MAX TEMP:  68;

MONTEVIDEO     CLEAR     63  63 100 SW9       29.85S FOG
PIPESTONE      CLEAR     64  63  94 S13       29.90F FOG
REDWOOD FALLS  CLEAR     64  62  93 S8        29.88S FOG
TRACY          CLEAR     68  65  91 SW21G28   29.88R
WINDOM         CLEAR     66  64  94 S9        29.92F
WORTHINGTON    CLEAR     64  61  88 S14       29.93S
$$

IAZ001>003-012>014-020>022-031-032-NEZ013-014-SDZ071-311300-
NORTHWEST IOWA

CITY           SKY/WX    TMP DP  RH WIND       PRES   REMARKS
DENISON        CLEAR     66  66 100 MISG      29.94S FOG
ESTHERVILLE    FOG       63  63 100 S8        29.95S VSB 1/4
SIOUX CITY     FOG       63  61  93 SE6       29.93  VSB 1/4
6HR MIN TEMP:  63; 6HR MAX TEMP:  66;

SPENCER        CLEAR     63  61  93 S6        29.95S FOG
6HR MIN TEMP:  62; 6HR MAX TEMP:  64;

$$

ABBREVIATIONS USED IN REMARKS
   TC - TEMPERATURE IN CELSIUS
  WCI - WIND CHILL INDEX
   HX - HEAT INDEX
  VSB - VISIBILITY



USA.gov is the U.S. government's official web portal to all federal, state and local government web resources and services.